Regional Weather Roundup
Issued by NWS

Home | Current Version | Previous Version | Text Only | Print | Product List | Glossary On
Versions: 1 2 3 4 5 6 7 8 9 10 11 12 13 14 15 16 17 18 19 20 21 22 23 24 25 26 27 28 29 30 31 32 33 34 35 36 37 38 39 40 41 42 43 44 45 46 47 48 49 50
000
ASUS42 KTBW 140510
RWRFL
FLORIDA REGIONAL WEATHER ROUNDUP
NATIONAL WEATHER SERVICE TAMPA BAY RUSKIN FL
100 AM EDT MON JUL 14 2014

NOTE: "FAIR" INDICATES FEW OR NO CLOUDS BELOW 12,000 FEET WITH NO
SIGNIFICANT WEATHER AND/OR OBSTRUCTIONS TO VISIBILITY.


FLZ001>010-012>015-112-114-115-140600-
PANHANDLE FLORIDA

CITY           SKY/WX    TMP DP  RH WIND       PRES   REMARKS
PENSACOLA      PTCLDY    79  72  79 SW3       30.06F
PENSACOLA NAS  CLEAR     78  74  87 S5        30.06F
MILTON NAS     PTCLDY    77  71  82 SW5       30.07F
CRESTVIEW      PTCLDY    75  74  96 CALM      30.09S
DUKE FIELD     FAIR      77  76  97 S2        30.08S
VALPARAISO     PTCLDY    82  74  76 SW5       30.06F
MARY ESTHER    CLEAR     82  70  66 S7        30.06S
TRI COUNTY     FAIR      74  73  97 CALM      30.09S
PANAMA CITY    FAIR      76  73  91 CALM      30.06F
TYNDALL AFB    CLEAR     81  75  83 SW7       30.07F
APALACHICOLA   CLEAR     78  73  84 CALM      30.06F

STATION/POSITION SKY/WX   TEMP    WIND        PRES    WAVE   SWELL
                          AIR SEA DIR/SP/G            HT/PER HT/PER
                          (F)     (DEG/KT/KT) (MB)    (FT/S) (FT/S)
30.1N   87.6W              84 85  190/ 10/ 12 1018.1F   1/ 9
29.2N   88.2W              81 88  170/ 14/ 17 1018.4F
28.8N   86.0W              84 85  180/  8/ 10 1018.1    2/ 4   2/ 4
PANAMA CITY BEAC           83 84  200/  9/ 11 1018.0F
CAPE SAN BLAS    NOT AVBL
TOWER C                    82     190/  5/  6 1018.1F
28.5N   84.5W              83 86   CALM  /  2 1018.2F   1/ 9   2/ 9

$$
FLZ011-016>038-118-127-128-134-139-239-140600-
NORTH FLORIDA

CITY           SKY/WX    TMP DP  RH WIND       PRES   REMARKS
MARIANNA       CLEAR     77  75  93 CALM      30.07F
TALLAHASSEE    CLEAR     77  71  82 CALM      30.08S
PERRY          CLEAR     73  72  94 CALM      30.09S
CROSS CITY       N/A     77  74  90 CALM      30.08F
GAINESVILLE    CLEAR     74  72  93 CALM      30.10S
MAYPORT NAS    CLEAR     78  74  87 S5        30.10S
JACKSONVILLE   PTCLDY    76  76 100 CALM      30.09F
JAX NAS        PTCLDY    83  76  79 S6        30.10F
JAX CRAIG      CLEAR     76  74  93 CALM      30.09F
JAX CECIL      CLEAR     73  73 100 CALM      30.10F FOG
FERNANDINA BEA FAIR      81  75  83 S5        30.08F
ST AUGUSTINE   CLEAR     77  74  90 CALM      30.10F

STATION/POSITION SKY/WX   TEMP    WIND        PRES    WAVE   SWELL
                          AIR SEA DIR/SP/G            HT/PER HT/PER
                          (F)     (DEG/KT/KT) (MB)    (FT/S) (FT/S)
SHELL POINT                79     310/  4/  5   N/A
KEATON BEACH               77      70/  3/  4 1018.6F
CEDAR KEY                  83     120/  8/  9 1019.5R
FERNANDINA                 80 83  170/  4/  7 1018.4F
30.7N   81.3W                 83                N/A     3/ 4
MAYPORT                    79 83  200/  3/  4   N/A
31.4N   80.9W              82 84  190/ 16/ 19 1018.6F   3/ 9   2/ 9
ST AUGUSTINE               78     210/  3/  4 1019.8F

$$
FLZ040-043>046-052-053-057-058-063-144-140600-
INTERIOR CENTRAL FLORIDA

CITY           SKY/WX    TMP DP  RH WIND       PRES   REMARKS
OCALA          CLEAR     73  64  73 CALM      30.10F
THE VILLAGES     N/A    N/A N/A N/A CALM        N/A
LEESBURG       CLEAR     79  75  87 SE3       30.11S
SANFORD        CLEAR     77  76  96 S3        30.10S
ORLANDO EXEC   CLEAR     77  74  90 E3        30.10S
ORLANDO INTL   PTCLDY    77  74  90 CALM      30.10S
WINTER HAVEN   CLEAR     78  74  87 S3        30.11F
LAKELAND         N/A     77  73  88 E3        30.10F
BARTOW         FAIR      73 N/A N/A CALM      30.11F
OKEECHOBEE     CLEAR     77  73  88 MISG      30.08F

$$
FLZ041-047-054-059-064-141-147-140600-
EAST CENTRAL FLORIDA

CITY           SKY/WX    TMP DP  RH WIND       PRES   REMARKS
DAYTONA BEACH  PTCLDY    76  74  93 CALM      30.10S
DELAND         CLEAR     75  73  94 CALM      30.10F
JFK SPACE CTR  CLEAR     78  75  90 SE2       30.09S
CAPE CANAVERAL CLEAR     82  74  77 S7        30.09S
PATRICK AFB    PTCLDY    83  75  77 S5        30.09S
MELBOURNE      PTCLDY    78  75  90 CALM      30.09S
VERO BEACH     CLEAR     79  76  90 SE6       30.08F
FT PIERCE      CLEAR     80  73  79 S5        30.08S
STUART           N/A    N/A N/A N/A MISG        N/A

STATION/POSITION SKY/WX   TEMP    WIND        PRES    WAVE   SWELL
                          AIR SEA DIR/SP/G            HT/PER HT/PER
                          (F)     (DEG/KT/KT) (MB)    (FT/S) (FT/S)
28.5N   80.2W              83 84  150/ 10/ 12 1019.5R
28.9N   78.5W              82 83  160/ 14/ 16 1019.3R   3/ 8   2/ 8
TRIDENT PIER               82 87  140/  6/ 10 1018.5F
28.4N   80.5W                 85                N/A     2/ 4
27.6N   80.2W                 83                N/A     2/ 8

$$
FLZ050-056-061-142-242-148-248-149-249-151-251-155-255-
160-260-140600-
WEST CENTRAL FLORIDA

CITY           SKY/WX    TMP DP  RH WIND       PRES   REMARKS
CRYSTAL RIVER  FAIR      73  70  88 CALM      30.09F
INVERNESS      FAIR      73  70  88 CALM      30.10F
BROOKSVILLE    CLEAR     75  73  93 E5        30.10F
ZEPHYRHILLS    FAIR      73  73 100 CALM      30.10F
CLEARWATER     PTCLDY    79  73  82 E3        30.08F
TAMPA INTL     MOCLDY    80  72  76 CALM      30.09F
TAMPA EXEC       N/A    N/A N/A N/A MISG        N/A
PLANT CITY     CLEAR     77 N/A N/A CALM      30.11F
MACDILL AFB    PTCLDY    78  75  92 E6        30.09S
ST PETERSBURG  PTCLDY    81  74  79 SE6       30.07S
SARASOTA       MOCLDY    78  72  81 E7        30.06S
VENICE         FAIR      77  72  83 E6        30.08F

STATION/POSITION SKY/WX   TEMP    WIND        PRES    WAVE   SWELL
                          AIR SEA DIR/SP/G            HT/PER HT/PER
                          (F)     (DEG/KT/KT) (MB)    (FT/S) (FT/S)
CEDAR KEY                  83     120/  8/  9 1019.5R
28.5N   84.5W              83 86   CALM  /  2 1018.2F   1/ 9   2/ 9
27.3N   84.3W                 86                N/A     1/ 5
CLEARWATER BEACH           82 87  120/  3/  5 1018.3F
MIDDLE TAMPA BAY           80     150/  7/  9 1018.8R
VENICE                     78 88   90/  6/  6 1018.0F

$$
FLZ066-069-070-075>078-162-262-165-265-140600-
SOUTHWEST FLORIDA AND KEYS

CITY           SKY/WX    TMP DP  RH WIND       PRES   REMARKS
PUNTA GORDA    CLOUDY    77  75  93 CALM      30.10S
FT MYERS       CLOUDY    78  75  90 CALM      30.07S
SOUTHWEST INTL CLOUDY    77  74  90 CALM      30.08S
NAPLES         MOCLDY    79  76  90 E5        30.07S
MARATHON       PTCLDY    84  75  74 SE6       30.08F
KEY WEST NAS   PTCLDY    84  75  74 SE10      30.08F
KEY WEST INTL  PTCLDY    85  76  74 SE9       30.08F

STATION/POSITION SKY/WX   TEMP    WIND        PRES    WAVE   SWELL
                          AIR SEA DIR/SP/G            HT/PER HT/PER
                          (F)     (DEG/KT/KT) (MB)    (FT/S) (FT/S)
VENICE                     78 88   90/  6/  6 1018.0F
NAPLES                     78 92  110/  3/  5 1018.8R
DRY TORTUGAS               84     130/  9/ 10 1018.2F
NW FL BAY                  84      80/  7/  9 1019.2S
SAND KEY                   83     130/ 11/ 12 1018.6F
SOMBRERO KEY               83     110/ 10/ 11 1019.3F
LONG KEY                   84 88  110/  9/ 10 1019.8S
MOLASSES REEF              83 85  130/ 12/ 14 1018.4F

$$
FLZ067-068-071>074-168-172>174-140600-
SOUTHEAST FLORIDA

CITY           SKY/WX    TMP DP  RH WIND       PRES   REMARKS
W PALM BEACH   PTCLDY    83  74  74 SE9       30.07F
FT LAUDER-EXEC PTCLDY    82  76  81 SE8       30.07F
FT LAUDERDALE  PTCLDY    84  74  71 SE13      30.07F
POMPANO BEACH    N/A     84  75  74 SE15      30.07F
PEMBROKE PINES CLEAR     83  74  74 SE7       30.09F
OPA LOCKA      PTCLDY    82  73  74 SE5       30.08F
MIAMI          PTCLDY    82  74  76 SE6       30.09S
WEST KENDALL   CLEAR     82  74  76 CALM      30.08F
HOMESTEAD      CLEAR     79  45  30 E1        30.08F

STATION/POSITION SKY/WX   TEMP    WIND        PRES    WAVE   SWELL
                          AIR SEA DIR/SP/G            HT/PER HT/PER
                          (F)     (DEG/KT/KT) (MB)    (FT/S) (FT/S)
PORT EVERGLADES            84     130/ 11/ 16 1018.4
VIRGINIA KEY               84 86  130/  9/ 11   N/A
LAKE WORTH                 83 84              1018.1F
FOWEY ROCKS                84 85  110/ 13/ 15 1018.7F
SETTLEMENT POINT           81     140/  7/  9 1019.4F

$$



USA.gov is the U.S. government's official web portal to all federal, state and local government web resources and services.